Location: Hawks Ness
(60.2333°N, 1.1667°W)
Time: 01:41:57
(UTC+00:00)

Cosmos 1602 Rocket - Visible Passes

Search period start: 22 January 2020 00:00
Search period end: 01 February 2020 00:00
Orbit: 603 x 634 km, 82.5° (Epoch: 21 January)

Date Brightness Start Highest point End Pass type
(mag) Time Alt. Az. Time Alt. Az. Time Alt. Az.
22 Jan 3.9 17:26:20 10° SSE 17:30:28 43° E 17:34:36 10° NNE visible
22 Jan 5.0 19:04:22 10° SW 19:08:26 36° WNW 19:12:30 10° N visible
22 Jan 6.7 20:47:12 10° NW 20:47:39 10° NW 20:48:06 10° NW visible
23 Jan 3.5 17:43:13 10° S 17:47:33 67° E 17:51:54 10° NNE visible
23 Jan 5.7 19:22:11 10° WSW 19:25:51 25° WNW 19:29:30 10° N visible
24 Jan 3.6 18:00:22 10° SSW 18:04:45 80° WNW 18:09:07 10° NNE visible
24 Jan 6.1 19:40:17 10° W 19:43:21 18° NW 19:46:25 10° N visible
25 Jan 4.4 16:40:33 10° SSE 16:44:19 29° E 16:48:05 10° NNE visible
25 Jan 4.3 18:17:44 10° SSW 18:22:00 52° WNW 18:26:17 10° N visible
25 Jan 6.4 19:58:44 10° WNW 20:00:56 13° NW 20:03:07 10° NNW visible
26 Jan 3.9 16:57:12 10° SSE 17:01:20 44° E 17:05:29 10° NNE visible
26 Jan 5.1 18:35:19 10° SW 18:39:20 35° WNW 18:43:22 10° N visible
27 Jan 3.5 17:14:08 10° S 17:18:27 69° E 17:22:47 10° NNE visible
27 Jan 5.7 18:53:09 10° WSW 18:56:45 25° WNW 19:00:22 10° N visible
28 Jan 3.7 17:31:17 10° SSW 17:35:39 78° WNW 17:40:00 10° NNE visible
28 Jan 6.2 19:11:15 10° W 19:14:15 18° NW 19:17:16 10° N visible
29 Jan 4.4 17:48:39 10° SW 17:52:54 51° WNW 17:57:09 10° N visible
29 Jan 6.4 19:29:44 10° WNW 19:31:50 13° NW 19:33:57 10° NNW visible
30 Jan 5.1 18:06:15 10° SW 18:10:14 34° WNW 18:14:14 10° N visible
31 Jan 5.7 18:24:05 10° WSW 18:27:40 24° WNW 18:31:14 10° N visible
